LKKB Weather Reports


Display with metric or nautical units.
time (UTC)temp
F
wind
direction
speed
MPH
gust
MPH
rain 1hr
in
rain 24hr
in
rain mn
in
humidity
%
barometer
mb
20260901233102 57 190 5.0 0.0 0.00 0.00 0.00 82 1021.0
20260901232038 59 180 7.0 0.0 0.00 0.00 0.00 77
20260901223102 59 190 6.0 0.0 0.00 0.00 0.00 77 1021.0
20260901222154 57 190 5.0 0.0 0.00 0.00 0.00 82
20260901220104 61 190 5.0 0.0 0.00 0.00 0.00 72 1021.0
20260901213102 61 190 3.0 0.0 0.00 0.00 0.00 72 1020.0
20260901211852 59 190 5.0 0.0 0.00 0.00 0.00 72
20260901210211 61 190 2.0 0.0 0.00 0.00 0.00 72 1020.0
20260901203103 61 190 3.0 0.0 0.00 0.00 0.00 67 1020.0
20260901202050 64 200 2.0 0.0 0.00 0.00 0.00 59
20260901193102 64 290 1.0 0.0 0.00 0.00 0.00 63 1020.0
20260901192052 66 290 2.0 0.0 0.00 0.00 0.00 55
20260901183102 66 0 2.0 0.0 0.00 0.00 0.00 59 1020.0
20260901181851 68 220 2.0 0.0 0.00 0.00 0.00 52
20260901180103 68 190 3.0 0.0 0.00 0.00 0.00 52 1020.0
20260901173102 70 280 5.0 0.0 0.00 0.00 0.00 46 1019.0
20260901172052 72 270 5.0 0.0 0.00 0.00 0.00 43
20260901170212 70 270 5.0 0.0 0.00 0.00 0.00 49 1019.0
20260901163103 72 240 7.0 0.0 0.00 0.00 0.00 46 1019.0
20260901162154 73 240 5.0 0.0 0.00 0.00 0.00 43
20260901153103 73 290 5.0 0.0 0.00 0.00 0.00 43 1020.0
20260901151851 72 280 5.0 0.0 0.00 0.00 0.00 43
20260901150103 72 280 6.0 0.0 0.00 0.00 0.00 46 1020.0
20260901143102 72 300 9.0 0.0 0.00 0.00 0.00 46 1020.0
20260901142051 72 300 7.0 0.0 0.00 0.00 0.00 43
20260901133103 72 270 9.0 0.0 0.00 0.00 0.00 46 1020.0
20260901131952 72 260 9.0 0.0 0.00 0.00 0.00 46
20260901123209 70 270 6.0 0.0 0.00 0.00 0.00 52 1020.0
20260901121851 70 290 9.0 0.0 0.00 0.00 0.00 49
20260901120103 70 290 8.0 0.0 0.00 0.00 0.00 52 1021.0
20260901113103 70 290 12.0 0.0 0.00 0.00 0.00 52 1021.0
20260901111952 70 280 12.0 0.0 0.00 0.00 0.00 52
20260901103103 70 280 12.0 0.0 0.00 0.00 0.00 52 1020.0
20260901102152 68 270 12.0 0.0 0.00 0.00 0.00 52
20260901093102 68 270 15.0 0.0 0.00 0.00 0.00 56 1020.0
20260901091851 66 260 14.0 0.0 0.00 0.00 0.00 59
20260901090103 66 270 13.0 0.0 0.00 0.00 0.00 63 1020.0
20260901083103 66 270 14.0 0.0 0.00 0.00 0.00 63 1020.0
20260901082055 64 260 12.0 0.0 0.00 0.00 0.00 63
20260901073103 64 250 15.0 0.0 0.00 0.00 0.00 67 1020.0
20260901072052 64 250 14.0 0.0 0.00 0.00 0.00 67
20260901070211 64 240 15.0 0.0 0.00 0.00 0.00 72 1020.0
20260901063210 63 230 8.0 0.0 0.00 0.00 0.00 77 1020.0
20260901061851 63 220 9.0 0.0 0.00 0.00 0.00 72
20260901053102 61 200 8.0 0.0 0.00 0.00 0.00 77 1019.0
20260901051951 61 230 12.0 0.0 0.00 0.00 0.00 77
20260901043102 59 220 7.0 0.0 0.00 0.00 0.00 82 1019.0
20260901042151 61 230 9.0 0.0 0.00 0.00 0.00 77
20260901033103 59 230 9.0 0.0 0.00 0.00 0.00 82 1018.0
20260901031851 61 230 9.0 0.0 0.00 0.00 0.00 72
20260901030103 59 230 10.0 0.0 0.00 0.00 0.00 82 1018.0
20260901023103 61 220 9.0 0.0 0.00 0.00 0.00 77 1018.0
20260901022052 63 230 12.0 0.0 0.00 0.00 0.00 67
20260901013102 63 230 13.0 0.0 0.00 0.00 0.00 67 1018.0
20260901012055 64 230 14.0 0.0 0.00 0.00 0.00 63
20260901003103 63 220 10.0 0.0 0.00 0.00 0.00 67 1018.0
20260901001851 64 240 14.0 0.0 0.00 0.00 0.00 59